Regional Weather Roundup
Issued by NWS Portland, ME

Home | Current Version | Previous Version | Text Only | Print | Product List | Glossary On
Versions: 1 2 3 4 5 6 7 8 9 10 11 12 13 14 15 16 17 18 19 20 21 22 23 24 25 26 27 28 29 30 31 32 33 34 35 36 37 38 39 40 41 42 43 44 45 46 47 48 49 50
000
ASUS41 KGYX 070010
RWRGYX
WEATHER ROUNDUP FOR MAINE AND NEW HAMPSHIRE
NATIONAL WEATHER SERVICE GRAY ME
700 PM EST FRI MAR 06 2015

MEZ002-005-006-010-012-015-018-020-021-024-026-027-029-070100-
MAINE

CITY           SKY/WX    TMP DP  RH WIND       PRES   REMARKS
PORTLAND       CLEAR     22   5  48 S6        30.32F
6HR MIN TEMP:  21; 6HR MAX TEMP:  23;

SANFORD        CLEAR     18  -2  41 S5        30.31F
BAR HARBOR     CLEAR     18   7  62 SW9       30.32F
WISCASSET      CLEAR     13   3  64 CALM      30.34F
6HR MIN TEMP:  13; 6HR MAX TEMP:  23;

ROCKLAND       CLEAR     19   3  49 SW5       30.32F
FRYEBURG       CLEAR     21 -10  25 SW7       30.26F
6HR MIN TEMP:  21; 6HR MAX TEMP:  27;

LEWISTONAUBURN FAIR      18   0  45 S6        30.28F
AUGUSTA        CLEAR     16   0  49 S9        30.29F
6HR MIN TEMP:  16; 6HR MAX TEMP:  23;

WATERVILLE     CLEAR     18  -4  38 S3        30.25S
BANGOR         PTCLDY    15  -1  49 S7        30.28F
6HR MIN TEMP:  14; 6HR MAX TEMP:  23;

GREENVILLE       N/A     12 -11  35 CALM      30.11F
6HR MIN TEMP:  12; 6HR MAX TEMP:  20;

MILLINOCKET    CLEAR     18  -8  31 VRB6      30.22F
6HR MIN TEMP:  18; 6HR MAX TEMP:  24;

HOULTON        CLEAR     17 -10  29 S9        30.18S
6HR MIN TEMP:  16; 6HR MAX TEMP:  20;

PRESQUE ISLE   CLEAR     16 -17  22 SW5       30.14F
6HR MIN TEMP:  16; 6HR MAX TEMP:  21;

FRENCHVILLE    CLEAR     13 -10  35 SW9       30.07F
6HR MIN TEMP:  13; 6HR MAX TEMP:  17;

CARIBOU        CLEAR     14 -11  32 S6        30.12F
6HR MIN TEMP:  14; 6HR MAX TEMP:  19;

$$

NHZ002-005-008-009-011-012-014-070100-
NEW HAMPSHIRE

CITY           SKY/WX    TMP DP  RH WIND       PRES   REMARKS
PORTSMOUTH     PTCLDY    19  -1  42 S7        30.32F
ROCHESTER      CLEAR     19  -3  38 S3        30.30F
6HR MIN TEMP:  19; 6HR MAX TEMP:  27;

NASHUA         CLEAR     19   3  49 VRB5      30.34S
MANCHESTER     PTCLDY    24  -2  32 S7        30.31S
6HR MIN TEMP:  21; 6HR MAX TEMP:  27;

CONCORD        CLEAR     19  -6  33 S6        30.30S
6HR MIN TEMP:  19; 6HR MAX TEMP:  28;

LACONIA        CLEAR     18  -4  38 CALM      30.25S
PLYMOUTH       FAIR      14   4  65 CALM      30.27S
BERLIN         CLEAR      8  -8  48 CALM      30.18F
6HR MIN TEMP:   6; 6HR MAX TEMP:  23;

WHITEFIELD     CLEAR      8  -6  52 CALM      30.20F
JAFFREY        CLEAR     17  -4  39 S7        30.27R
6HR MIN TEMP:  13; 6HR MAX TEMP:  24;

KEENE          CLEAR     19  -2  38 S6        30.30S
LEBANON        CLEAR     15  -3  44 S3        30.27S
6HR MIN TEMP:  14; 6HR MAX TEMP:  27;

MT WASHINGTON  PTCLDY    -4 -15  59 W33         N/A  WCI -32
6HR MIN TEMP:  -6; 6HR MAX TEMP:  -3;

$$

VTZ005-007-008-070100-
VERMONT

CITY           SKY/WX    TMP DP  RH WIND       PRES   REMARKS
ST JOHNSBURY     N/A     20  -4  34 MISG      30.21F
MONTPELIER     CLEAR     16  -7  35 S13       30.24S WCI   2
BURLINGTON     PTCLDY    21  -2  36 S12       30.25S WCI   9
$$

MAZ007-012-024-CTZ003-RIZ002-NYZ038-NYZ072-070100-
SOUTHERN NEW ENGLAND AND NY

CITY           SKY/WX    TMP DP  RH WIND       PRES   REMARKS
BOSTON         PTCLDY    22   4  46 S13       30.38  WCI  10
WORCESTER      CLEAR     19  -8  30 SW7       30.29S
NANTUCKET      CLEAR     16   9  74 NW3       30.41S
PROVIDENCE     CLEAR     17   6  62 S9        30.41R
HARTFORD       MOCLDY    25   3  38 S10       30.35S WCI  15
ALBANY         MOCLDY    22   0  38 S5        30.34F
NEW YORK CITY  MOCLDY    25   7  46 S12       30.41F WCI  14
$$

ANZ081-ANZ082-ANZ150-NHZ014-MEZ023>029-070100-
COASTAL MARINE OBSERVATIONS

STATION/POSITION TIME  TEMP    WIND        PRES    WAVE
                       AIR SEA DIR/SP/G            HT/PER
                 (UTC) (F)     (DEG/KT/KT) (MB)    (FT/S)
MOUNT DESERT ROC 0000   23                 1026.8F
MATINICUS ROCK   0000   22     220/ 19/ 21 1027.3F
WELLS            2300   22     220/ 10/ 11 1027.0F
ISLE OF SHOALS   0000   24     200/ 20/ 21 1026.7F
JEFFREYS LEDGE   2351      40                N/A     3/ 7
CASHES LEDGE BUO 2350   24 42              1027.6F   2/10
$$

.............KEY..............
   WCI - WIND CHILL
   TC  - TEMPERATURE IN CELSIUS
   VSB - VISIBILITY IN MILES
   HX  - HEAT INDEX
   FAIR- INDICATES FEW OR NO CLOUDS BELOW 12,000 FT, WITH NO
         SIGNIFICANT WEATHER AND/OR OBSTRUCTIONS TO VISIBILITY.




USA.gov is the U.S. government's official web portal to all federal, state and local government web resources and services.